Regional Weather Roundup
Issued by NWS Sioux Falls, SD

Home | Current Version | Previous Version | Text Only | Print | Product List | Glossary On
Versions: 1 2 3 4 5 6 7 8 9 10 11 12 13 14 15 16 17 18 19 20 21 22 23 24 25 26 27 28 29 30 31 32 33 34 35 36 37 38 39 40 41 42 43 44 45 46 47 48 49 50
000
ASUS43 KFSD 281502
RWRFSD

WEATHER ROUNDUP FOR SE SOUTH DAKOTA/SW MINNESOTA/NW IOWA
NATIONAL WEATHER SERVICE SIOUX FALLS SD
1000 AM CDT TUE JUL 28 2015

NOTE: "FAIR" INDICATES FEW OR NO CLOUDS BELOW 12,000 FEET WITH NO
SIGNIFICANT WEATHER AND OR OBSTRUCTIONS TO VISIBILITY.


SDZ038>040-050-052>070-281600-
SOUTHEAST SOUTH DAKOTA

CITY           SKY/WX    TMP DP  RH WIND       PRES   REMARKS
BROOKINGS      PTSUNNY   75  66  73 SW15G21   29.83S
CHAMBERLAIN    NOT AVBL
HURON          MOSUNNY   70  61  73 NW18      29.86R
MADISON        FAIR      73  72  94 SW17G25   29.84R
MITCHELL       CLOUDY    72  68  87 W8        29.87R
SIOUX FALLS    MOSUNNY   76  68  76 SW9       29.80F
WINNER         FAIR      68  54  60 NW21      29.96R
YANKTON        CLOUDY    81  70  69 MISG      29.83S
$$

MNZ071-072-080-081-089-090-097-098-281600-
SOUTHWEST MINNESOTA

CITY           SKY/WX    TMP DP  RH WIND       PRES   REMARKS
FAIRMONT       CLOUDY    72  64  78 S9        29.81S
JACKSON        CLOUDY    72  70  94 S12G17    29.83S
LUVERNE        PTSUNNY   73  68  83 S9        29.81F
MARSHALL       CLOUDY    73  64  73 SW10      29.79S
MONTEVIDEO     CLOUDY    73  72  94 NW6       29.81R
PIPESTONE        N/A     75  68  78 SW12      29.81S
REDWOOD FALLS  CLOUDY    72  66  81 SW8       29.79R
WINDOM         CLOUDY    72  68  88 S12       29.81F
WORTHINGTON    CLOUDY    70  64  83 SW10      29.82R
$$

IAZ001>003-012>014-020>022-031-032-NEZ013-014-SDZ071-281600-
NORTHWEST IOWA

CITY           SKY/WX    TMP DP  RH WIND       PRES   REMARKS
DENISON        CLOUDY    70  68  94 SE23G29   29.80F
ESTHERVILLE    CLOUDY    70  69  97 S10       29.83S
SIOUX CITY     CLOUDY    73  68  84 S10       29.82R
SPENCER        CLOUDY    71  67  87 S13       29.86R
$$

ABBREVIATIONS USED IN REMARKS
   TC - TEMPERATURE IN CELSIUS
  WCI - WIND CHILL INDEX
   HX - HEAT INDEX
  VSB - VISIBILITY




USA.gov is the U.S. government's official web portal to all federal, state and local government web resources and services.